DMSP 5D-2 F13 DEB, 40677

Orbit data source: Space-Track

DMSP 5D-2 F13 DEB, 40677 is space debris in SSO originally from a launch on Fri, 24 Mar 1995 UTC launched from the Air Force Western Test Range (AFWTR). Debris objects in space refer to the collection of defunct objects orbiting the Earth. Examples of debris include non-operational satellites, rocket bodies, and fragments generated from explosions, collisions, or faulty payload assembly.

Loading next visibility...
Identifier
40677, 1995-015FR
Orbit
SSO
Country
Flag of USUS
Related business
Manufacturer
Unknown
Mission
Spacecraft
Bus & Motor
Unknown
Mass
Unknown
Launch date (UTC)
1995-03-24 (31 years ago)
Launch vehicle
Unknown
Launch site
Air Force Western Test Range (AFWTR)
Object type
Payload
Rocket body
Debris
Shape & HBR
Unknown shape, 0.1 m
Radar Cross Section
Small (<0.1 m²)

Expand to show TLE details & history
Last TLE update: 1 week ago

TLE from 1 week ago
0 DMSP 5D-2 F13 DEB
1 40677U 95015FR  26029.78029391  .00000893  00000-0  37347-3 0  9999
2 40677  98.5963  48.8342 0047311 311.0454  48.6643 14.27975821560670
Epoch: 2026-01-29T18:43Z
TLE epoch observation values (Epoch: 2026-01-29T18:43:37.393Z)
Latitude
-0.00002°
Longitude
-1.09968°
Altitude
779.095 km
Speed
7.476 km/s
True Right ascension
03h 15m 20s
True Declination
0° 00' 00"
Sunlit
Object was in daylight at epoch
Visualization orbit readout
Latitude
Unknown
Longitude
Unknown
Altitude
Unknown
Speed
Unknown
Apparent Right ascension
Unknown
Apparent Declination
Unknown
Sunlit
N/A
Visualization observer readout
Local Sidereal Time
20:15:59
Azimuth
Unknown
Elevation
Unknown
Doppler factor
Unknown
Orbital elements
Apogee altitude
829.587 km
Perigee altitude
761.707 km
Semi-major axis
7,173.784 km
Eccentricity
0.00473
Inclination
98.5963°
RAAN
48.8342°
Arg. of periapsis
311.0454°
True anomaly
49.07296°
Mean anomaly
48.6643°
Eccentric anomaly
48.86847°
Mean motion
3.57208 °/min
Orbital period
100.78 mins
BSTAR
0.00037347
Loading maneuver chart data...
Computing Atmospheric mass density...

Documentation

Showing up to 5 results
|